Hourly Data Report for July 27, 2003

SHERBROOKE A
QUEBEC

45°26'00.000" N
71°41'00.000" W
241.40 m
7028124
71610
YSC

Download Data

Hourly Data (July 2003)
Hourly Data Report for July 27, 2003
TIME
LST
Temp Definition
°C
Dew Point Definition
°C
Rel Hum Definition
%
Precip. Amount Definition
mm

Wind Dir Definition
10's deg

Wind Spd Definition
km/h
Visibility Definition
km
Stn Press Definition
kPa
Hmdx Definition


Wind Chill Definition


Weather Definition


00:00 17.0 14.7 86   23 7 15.0 98.50      
01:00 17.2 15.3 89   18 4 9.7 98.37      
02:00 17.7 15.1 85   21 6 11.3 98.28      
03:00 18.0 15.2 84   23 9 11.3 98.19      
04:00 17.9 15.5 86   24 6 9.7 98.10      
05:00 18.4 15.3 82   21 6 9.7 98.00      
06:00 18.3 15.5 84   21 6 9.7 97.91      
07:00 19.1 15.5 80   21 11 16.1 97.82     Rain
08:00 18.4 16.4 88   20 4 19.3 97.76     Drizzle
09:00 19.3 16.7 85   22 11 19.3 97.67     Cloudy
10:00 19.5 17.3 87   23 17 12.9 97.60     Rain Showers
11:00 19.9 17.6 87   23 19 12.9 97.52     Cloudy
12:00 20.8 17.8 83   23 17 19.3 97.43 27   Cloudy
13:00 20.5 18.2 87   23 17 4.8 97.39 27   Drizzle, Fog
14:00 20.0 18.8 93   23 15 1.6 97.36 27   Rain, Drizzle, Fog
15:00 21.7 19.9 90   23 17 16.1 97.30 29   Cloudy
16:00 22.8 19.6 82   25 19 16.1 97.27 30   Mostly Cloudy
17:00 20.5 18.0 86   32 17 9.7 97.38 27    
18:00 19.5 14.8 74   30 11 15.0 97.44      
19:00 18.2 14.1 77   31 9 15.0 97.55      
20:00 15.6 12.5 82   28 7 15.0 97.62      
21:00 14.5 12.1 86   29 6 15.0 97.68      
22:00 13.8 12.1 89   24 7 15.0 97.71      
23:00 13.8 11.5 86   24 9 15.0 97.74      

Notes on Data Quality.

Legend

  • E = Estimated
  • M = Missing
  • NA = Not Available*
  • [empty] = Indicates an unobserved value
Date modified: